User: anonymous   Login
Location: ???? ?????????
(31.1304°N, 31.7111°E)
Time: 12:12:19
(UTC+00:00)
Language:

CSL-04 Rocket - Orbit

View from above orbital plane
View from above orbital plane
View from above satellite
View from above satellite

Ground track
Ground track

The orbit data is extracted from the following two-line orbital elements,

1 25732U 99025C   21018.89622455 -.00000038  00000-0  35883-5 0  9991
2 25732  98.9224  54.8689 0036633 317.5377 216.1924 14.17687113122345
Epoch (UTC): 18 January 2021 21:30:33
Eccentricity: 0.0036633
inclination: 98.9224°
perigee height: 807 km
apogee height: 859 km
right ascension of ascending node: 54.8689°
argument of perigee: 317.5377°
revolutions per day: 14.17687113
mean anomaly at epoch: 216.1924°
orbit number at epoch: 12234

The dashed part of the orbit path shows where the satellite is in the earth's shadow,  

DLR